Location: Ladrillo (historical)
(32.8195°N, 117.2231°W)
Time: 19:57:43
(UTC+00:00)

Explorer 11/Cluster Stage 4 - Visible Passes

Search period start: 04 March 2021 00:00
Search period end: 14 March 2021 00:00
Orbit: 467 x 1257 km, 28.8° (Epoch: 04 March)

Date Brightness Start Highest point End Pass type
(mag) Time Alt. Az. Time Alt. Az. Time Alt. Az.
04 Mar 8.8 10:58:17 25° ESE 10:58:17 25° ESE 11:01:34 10° E visible
04 Mar 7.4 12:40:25 33° WSW 12:43:38 64° S 12:51:25 10° E visible
05 Mar 9.0 10:47:58 21° ESE 10:47:58 21° ESE 10:50:20 10° E visible
05 Mar 7.3 12:30:05 40° WSW 12:32:31 64° S 12:40:08 10° E visible
06 Mar 9.3 10:37:39 16° E 10:37:39 16° E 10:39:08 10° E visible
06 Mar 7.1 12:19:46 48° SW 12:21:25 63° S 12:28:51 10° E visible
07 Mar 9.5 10:27:20 12° E 10:27:20 12° E 10:27:55 10° E visible
07 Mar 7.0 12:09:28 56° SW 12:10:20 62° S 12:17:34 10° ESE visible
08 Mar 7.0 11:59:10 60° S 11:59:16 60° S 12:06:16 10° ESE visible
08 Mar 7.9 13:41:56 10° W 13:48:04 42° SSW 13:55:18 10° SE visible
09 Mar 7.2 11:48:56 54° SSE 11:48:56 54° SSE 11:54:58 10° ESE visible
09 Mar 7.9 13:31:09 10° W 13:36:57 37° SSW 13:43:49 10° SE visible
10 Mar 7.6 11:38:44 43° SE 11:38:44 43° SE 11:43:39 10° ESE visible
10 Mar 8.0 13:20:52 12° WSW 13:25:50 33° SSW 13:32:17 10° SE visible
11 Mar 8.0 11:28:34 32° SE 11:28:34 32° SE 11:32:21 10° ESE visible
11 Mar 8.1 13:10:43 15° WSW 13:14:44 29° SSW 13:20:42 10° SE visible
12 Mar 8.5 11:18:29 23° SE 11:18:29 23° SE 11:21:01 10° ESE visible
12 Mar 8.2 13:00:38 16° WSW 13:03:41 24° SSW 13:09:03 10° SSE visible
13 Mar 8.9 11:08:28 15° SE 11:08:28 15° SE 11:09:41 10° ESE visible
13 Mar 8.2 12:50:36 17° SW 12:52:38 20° SSW 12:57:17 10° SSE visible
